Location: Ebersheim
(48.3033°N, 7.4991°E)
Time: 04:54:44
(UTC+00:00)

Cosmos 1943 Rocket - Pass Details

Date: 27 February 2020
Orbit: 813 x 842 km, 71.0° (Epoch: 02 April)

Event Time Altitude Azimuth Distance (km) Brightness Sun altitude
Rises 17:52:18 0° 223° (SW) 3,356 6.1 -7.8°
Reaches altitude 10° 17:54:49 10° 229° (SW) 2,422 5.5 -8.2°
Maximum altitude 18:00:11 50° 304° (NW) 1,044 3.1 -9.1°
Drops below altitude 10° 18:05:34 10° 20° (NNE) 2,420 4.4 -10.0°
Sets 18:08:05 0° 26° (NNE) 3,353 5.1 -10.4°
